When you browse on this site, cookies collect data to enhance your experience and personalize the content and advertising you see.
Visit our Privacy Policy to learn more. By continuing to use the site, you agree to this use of cookies and data.
  • In Hungary
  • List of Countries
  • For 7 days
  • Water Temperature
  • Weather Map
  • News
  • Weather Widgets
  • user-avatar
    Login

    Hourly Weather Kranevo

    Today, 28 May, Thursday

    Time Temperature Precipitation Wind Pressure Humidity
    00:00 +11°C° 0.1 mm 4 mps 758 mmHg 90%
    01:00 +11°C° 0.1 mm 4 mps 758 mmHg 91%
    02:00 +9°C° 0.1 mm 5 mps 758 mmHg 92%
    03:00 +9°C° 0 mm 5 mps 758 mmHg 92%
    04:00 +9°C° 0 mm 5 mps 758 mmHg 93%
    05:00 +8°C° 0 mm 5 mps 757 mmHg 94%
    06:00 +10°C° 0 mm 6 mps 757 mmHg 89%
    07:00 +11°C° 0 mm 6 mps 757 mmHg 85%
    08:00 +14°C° 0 mm 6 mps 757 mmHg 81%
    09:00 +15°C° 0.2 mm 6 mps 757 mmHg 75%
    10:00 +16°C° 0.2 mm 6 mps 757 mmHg 69%
    11:00 +19°C° 0.2 mm 5 mps 757 mmHg 64%
    12:00 +19°C° 0.5 mm 5 mps 757 mmHg 64%
    13:00 +19°C° 0.5 mm 4 mps 756 mmHg 64%
    14:00 +20°C° 0.5 mm 3 mps 756 mmHg 64%
    15:00 +19°C° 0.6 mm 3 mps 756 mmHg 65%
    16:00 +19°C° 0.6 mm 2 mps 755 mmHg 66%
    17:00 +19°C° 0.6 mm 2 mps 755 mmHg 68%
    18:00 +17°C° 0.2 mm 2 mps 755 mmHg 72%
    19:00 +16°C° 0.2 mm 2 mps 755 mmHg 77%
    20:00 +14°C° 0.2 mm 2 mps 755 mmHg 81%
    21:00 +14°C° 0 mm 2 mps 755 mmHg 82%
    22:00 +13°C° 0 mm 2 mps 756 mmHg 83%
    23:00 +13°C° 0 mm 2 mps 756 mmHg 84%

    Tomorrow, 29 May, Friday

    Time Temperature Precipitation Wind Pressure Humidity
    00:00 +12°C° 0 mm 3 mps 756 mmHg 84%
    01:00 +11°C° 0 mm 3 mps 756 mmHg 84%
    02:00 +11°C° 0 mm 3 mps 755 mmHg 85%
    03:00 +11°C° 0.1 mm 3 mps 756 mmHg 85%
    04:00 +11°C° 0.1 mm 3 mps 756 mmHg 86%
    05:00 +11°C° 0.1 mm 3 mps 756 mmHg 86%
    06:00 +12°C° 0 mm 3 mps 756 mmHg 81%
    07:00 +14°C° 0 mm 3 mps 756 mmHg 76%
    08:00 +17°C° 0 mm 2 mps 756 mmHg 71%
    09:00 +18°C° 0.3 mm 2 mps 756 mmHg 67%
    10:00 +19°C° 0.3 mm 2 mps 756 mmHg 64%
    11:00 +20°C° 0.3 mm 2 mps 756 mmHg 60%
    12:00 +20°C° 1 mm 2 mps 755 mmHg 61%
    13:00 +20°C° 1 mm 2 mps 755 mmHg 63%
    14:00 +20°C° 1 mm 2 mps 755 mmHg 64%
    15:00 +20°C° 0.7 mm 3 mps 755 mmHg 67%
    16:00 +19°C° 0.7 mm 3 mps 755 mmHg 71%
    17:00 +18°C° 0.7 mm 3 mps 755 mmHg 74%
    18:00 +17°C° 0.1 mm 3 mps 755 mmHg 78%
    19:00 +16°C° 0.1 mm 3 mps 755 mmHg 82%
    20:00 +14°C° 0.1 mm 3 mps 755 mmHg 85%
    21:00 +14°C° 0 mm 3 mps 755 mmHg 86%
    22:00 +13°C° 0 mm 3 mps 755 mmHg 87%
    23:00 +14°C° 0 mm 2 mps 755 mmHg 87%

    Day after tomorrow, 30 May, Saturday

    Time Temperature Precipitation Wind Pressure Humidity
    00:00 +13°C° 0 mm 2 mps 755 mmHg 88%
    01:00 +13°C° 0 mm 2 mps 755 mmHg 88%
    02:00 +13°C° 0 mm 2 mps 755 mmHg 89%
    03:00 +13°C° 0 mm 2 mps 755 mmHg 89%
    04:00 +13°C° 0 mm 2 mps 755 mmHg 90%
    05:00 +13°C° 0 mm 2 mps 755 mmHg 91%
    06:00 +14°C° 0 mm 2 mps 755 mmHg 87%
    07:00 +16°C° 0 mm 2 mps 756 mmHg 83%
    08:00 +17°C° 0 mm 2 mps 756 mmHg 80%
    09:00 +18°C° 0.6 mm 2 mps 756 mmHg 76%
    10:00 +19°C° 0.6 mm 2 mps 756 mmHg 73%
    11:00 +20°C° 0.6 mm 3 mps 756 mmHg 69%
    12:00 +21°C° 0.7 mm 3 mps 755 mmHg 68%
    13:00 +21°C° 0.7 mm 3 mps 755 mmHg 67%
    14:00 +21°C° 0.7 mm 4 mps 755 mmHg 66%
    15:00 +21°C° 0.4 mm 4 mps 755 mmHg 68%
    16:00 +21°C° 0.4 mm 5 mps 755 mmHg 70%
    17:00 +21°C° 0.4 mm 5 mps 754 mmHg 72%
    18:00 +19°C° 0.3 mm 4 mps 754 mmHg 76%
    19:00 +18°C° 0.3 mm 4 mps 754 mmHg 81%
    20:00 +16°C° 0.3 mm 3 mps 754 mmHg 86%
    21:00 +16°C° 0 mm 3 mps 754 mmHg 86%
    22:00 +16°C° 0 mm 3 mps 754 mmHg 86%
    23:00 +14°C° 0 mm 3 mps 754 mmHg 87%

    31 May, Sunday

    Time Temperature Precipitation Wind Pressure Humidity
    00:00 +14°C° 0 mm 3 mps 754 mmHg 86%
    01:00 +14°C° 0 mm 3 mps 754 mmHg 85%
    02:00 +15°C° 0 mm 2 mps 753 mmHg 85%
    03:00 +15°C° 0 mm 2 mps 753 mmHg 85%
    04:00 +13°C° 0 mm 3 mps 753 mmHg 85%
    05:00 +13°C° 0 mm 3 mps 753 mmHg 85%
    06:00 +16°C° 0 mm 3 mps 753 mmHg 80%
    07:00 +18°C° 0 mm 3 mps 753 mmHg 76%
    08:00 +19°C° 0 mm 4 mps 754 mmHg 72%
    09:00 +21°C° 0 mm 4 mps 754 mmHg 67%
    10:00 +22°C° 0 mm 4 mps 754 mmHg 62%
    11:00 +23°C° 0 mm 5 mps 754 mmHg 57%
    12:00 +23°C° 0.3 mm 5 mps 753 mmHg 58%
    13:00 +23°C° 0.3 mm 5 mps 753 mmHg 60%
    14:00 +23°C° 0.3 mm 5 mps 753 mmHg 61%
    15:00 +22°C° 0.6 mm 4 mps 752 mmHg 65%
    16:00 +22°C° 0.6 mm 4 mps 752 mmHg 69%
    17:00 +21°C° 0.6 mm 4 mps 752 mmHg 73%
    18:00 +20°C° 0.2 mm 4 mps 752 mmHg 77%
    19:00 +19°C° 0.2 mm 3 mps 752 mmHg 80%
    20:00 +17°C° 0.2 mm 3 mps 752 mmHg 83%
    21:00 +17°C° 0 mm 3 mps 752 mmHg 83%
    22:00 +17°C° 0 mm 3 mps 752 mmHg 82%
    23:00 +16°C° 0 mm 3 mps 752 mmHg 82%

    1 June, Monday

    Time Temperature Precipitation Wind Pressure Humidity
    00:00 +16°C° 0 mm 3 mps 752 mmHg 82%
    01:00 +14°C° 0 mm 3 mps 752 mmHg 83%
    02:00 +14°C° 0 mm 3 mps 752 mmHg 84%
    03:00 +13°C° 0 mm 3 mps 752 mmHg 84%
    04:00 +13°C° 0 mm 3 mps 752 mmHg 85%
    05:00 +12°C° 0 mm 4 mps 752 mmHg 85%
    06:00 +13°C° 0 mm 4 mps 752 mmHg 82%
    07:00 +15°C° 0 mm 5 mps 752 mmHg 78%
    08:00 +16°C° 0 mm 6 mps 752 mmHg 74%
    09:00 +17°C° 0 mm 5 mps 752 mmHg 70%
    10:00 +20°C° 0 mm 5 mps 752 mmHg 66%
    11:00 +21°C° 0 mm 5 mps 752 mmHg 63%
    12:00 +21°C° 0.1 mm 4 mps 752 mmHg 61%
    13:00 +22°C° 0.1 mm 4 mps 752 mmHg 60%
    14:00 +22°C° 0.1 mm 4 mps 752 mmHg 58%
    15:00 +22°C° 0.3 mm 4 mps 752 mmHg 62%
    16:00 +21°C° 0.3 mm 4 mps 752 mmHg 67%
    17:00 +20°C° 0.3 mm 5 mps 752 mmHg 71%
    18:00 +19°C° 0.1 mm 4 mps 752 mmHg 76%
    19:00 +18°C° 0.1 mm 3 mps 752 mmHg 81%
    20:00 +16°C° 0.1 mm 3 mps 752 mmHg 86%
    21:00 +16°C° 0 mm 3 mps 752 mmHg 86%
    22:00 +16°C° 0 mm 2 mps 752 mmHg 87%
    23:00 +15°C° 0 mm 2 mps 752 mmHg 87%

    2 June, Tuesday

    Time Temperature Precipitation Wind Pressure Humidity
    00:00 +15°C° 0.1 mm 2 mps 752 mmHg 87%
    01:00 +15°C° 0.1 mm 2 mps 752 mmHg 87%
    02:00 +15°C° 0.1 mm 1 mps 752 mmHg 87%
    03:00 +15°C° 0.2 mm 1 mps 752 mmHg 86%
    04:00 +15°C° 0.2 mm 1 mps 752 mmHg 86%
    05:00 +15°C° 0.2 mm 1 mps 752 mmHg 85%
    06:00 +16°C° 0.1 mm 1 mps 752 mmHg 84%
    07:00 +18°C° 0.1 mm 1 mps 753 mmHg 82%
    08:00 +19°C° 0.1 mm 1 mps 753 mmHg 81%
    09:00 +19°C° 0.2 mm 2 mps 753 mmHg 76%
    10:00 +20°C° 0.2 mm 3 mps 753 mmHg 71%
    11:00 +21°C° 0.2 mm 3 mps 753 mmHg 66%
    12:00 +21°C° 0.1 mm 3 mps 753 mmHg 64%
    13:00 +21°C° 0.1 mm 3 mps 753 mmHg 62%
    14:00 +22°C° 0.1 mm 3 mps 753 mmHg 60%
    15:00 +21°C° 0 mm 3 mps 752 mmHg 63%
    16:00 +21°C° 0 mm 3 mps 752 mmHg 65%
    17:00 +20°C° 0 mm 3 mps 752 mmHg 67%
    18:00 +19°C° 0 mm 3 mps 752 mmHg 74%
    19:00 +17°C° 0 mm 2 mps 752 mmHg 81%
    20:00 +16°C° 0 mm 2 mps 752 mmHg 88%
    21:00 +16°C° 0 mm 2 mps 752 mmHg 88%
    22:00 +15°C° 0 mm 2 mps 752 mmHg 89%
    23:00 +15°C° 0 mm 2 mps 752 mmHg 90%
    Show more